QPF
0.00 0.00 0.00 0.00 0.00 0.00 0.00 0.04 0.04 0.01 0.00 0.01 0.01 0.00 0.02 0.01 0.00 0.00 0.00 0.00 0.00 0.00 0.01 0.07 0.05 0.01 0.00 0.00 0.00 0.00 0.00 0.00 0.00 0.00 0.00 0.00 0.00 0.00 0.00 0.00 0.00 0.00 0.00 0.00 0.00 0.00 0.01 0.01 0.01
0.00 0.00 0.00 0.00 0.00 0.00 0.00 0.05 0.08 0.01 0.00 0.00 0.00 0.00 0.00 0.00 0.00 0.00 0.00 0.00 0.00 0.00 0.00 0.00 0.00 0.00 0.00 0.00 0.00 0.00 0.00 0.00 0.00 0.00 0.00 0.00 0.00 0.00 0.00 0.00 0.00 0.00 0.00 0.00 0.00 0.00 0.00 0.00 0.00
0.00 0.00 0.00 0.00 0.00 0.00 0.00 0.02 0.03 0.00 0.00 0.00 0.00 0.00 0.00 0.00 0.00 0.00 0.00 0.00 0.00 0.00 0.00 0.00 0.00 0.00 0.00 0.00 0.00 0.00 0.00 0.00 0.00 0.00 0.00 0.00 0.00 0.00 0.00 0.00 0.00 0.00 0.00 0.00 0.00 0.00 0.00 0.00 0.00
0.00 0.00 0.00 0.00 0.00 0.00 0.00 0.00 0.01 0.00 0.00 0.00 0.00 0.00 0.00 0.00 0.00 0.00 0.00 0.00 0.00 0.00 0.00 0.00 0.00 0.00 0.00 0.00 0.00 0.00 0.00 0.00 0.00 0.00 0.00 0.00 0.00 0.00 0.00 0.00 0.00 0.00 0.00 0.00 0.00 0.00 0.00 0.00 0.00
0.00 0.00 0.00 0.00 0.00 0.00 0.00 0.00 0.00 0.00 0.00 0.00 0.00 0.00 0.00 0.00 0.00 0.00 0.00 0.00 0.00 0.00 0.00 0.00 0.00 0.00 0.00 0.00 0.00 0.00 0.00 0.00 0.00 0.00 0.00 0.00 0.00 0.00 0.00 0.00 0.00 0.00 0.00 0.00 0.00 0.00 0.00 0.00 0.00
0.00 0.00 0.00 0.00 0.00 0.00 0.00 0.00 0.00 0.00 0.00 0.00 0.00 0.00 0.00 0.00 0.00 0.00 0.00 0.00 0.00 0.00 0.00 0.00 0.00 0.00 0.00 0.00 0.00 0.00 0.00 0.00 0.00 0.00 0.00 0.00 0.00 0.00 0.00 0.00 0.00 0.00 0.00 0.00 0.00 0.00 0.00 0.00 0.00
0.00 0.00 0.00 0.00 0.00 0.00 0.00 0.00 0.00 0.00 0.00 0.00 0.00 0.00 0.00 0.00 0.00 0.00 0.00 0.00 0.00 0.00 0.00 0.00 0.00 0.00 0.00 0.00 0.00 0.00 0.00 0.00 0.00 0.00 0.00 0.00 0.00 0.00 0.00 0.00 0.00 0.00 0.00 0.00 0.00 0.00 0.00 0.00 0.00
0.00 0.00 0.00 0.00 0.00 0.00 0.00 0.00 0.00 0.00 0.00 0.00 0.00 0.00 0.00 0.00 0.00 0.00 0.00 0.00 0.00 0.00 0.00 0.00 0.00 0.00 0.00 0.00 0.00 0.00 0.00 0.00 0.00 0.00 0.00 0.00 0.00 0.00 0.00 0.00 0.00 0.00 0.00 0.00 0.00 0.00 0.00 0.00 0.00
0.00 0.00 0.00 0.00 0.00 0.00 0.00 0.00 0.00 0.00 0.00 0.00 0.00 0.00 0.00 0.00 0.00 0.00 0.00 0.00 0.00 0.00 0.00 0.00 0.00 0.00 0.00 0.00 0.00 0.00 0.00 0.00 0.00 0.00 0.00 0.00 0.00 0.00 0.00 0.00 0.00 0.00 0.00 0.00 0.00 0.00 0.00 0.00 0.00
0.00 0.00 0.00 0.00 0.00 0.00 0.00 0.00 0.00 0.00 0.00 0.00 0.00 0.00 0.00 0.00 0.00 0.00 0.00 0.00 0.00 0.00 0.00 0.00 0.00 0.00 0.00 0.00 0.00 0.00 0.00 0.00 0.00 0.00 0.00 0.00 0.00 0.00 0.00 0.00 0.00 0.00 0.00 0.00 0.00 0.00 0.00 0.00 0.00
0.00 0.00 0.00 0.00 0.00 0.00 0.00 0.00 0.00 0.00 0.00 0.00 0.00 0.00 0.00 0.00 0.00 0.00 0.00 0.00 0.00 0.00 0.00 0.00 0.00 0.00 0.00 0.00 0.00 0.00 0.00 0.00 0.00 0.00 0.00 0.00 0.00 0.00 0.00 0.00 0.00 0.00 0.00 0.00 0.00 0.00 0.00 0.00 0.00
0.00 0.00 0.00 0.01 0.00 0.00 0.00 0.00 0.00 0.00 0.00 0.00 0.00 0.00 0.00 0.00 0.00 0.00 0.00 0.00 0.00 0.00 0.00 0.00 0.00 0.00 0.00 0.00 0.00 0.00 0.00 0.00 0.00 0.00 0.00 0.00 0.00 0.00 0.00 0.00 0.00 0.00 0.00 0.00 0.00 0.00 0.00 0.00 0.00
0.00 0.01 0.00 0.02 0.02 0.00 0.00 0.00 0.00 0.00 0.00 0.00 0.00 0.00 0.00 0.00 0.00 0.00 0.00 0.00 0.00 0.00 0.00 0.00 0.00 0.00 0.00 0.00 0.00 0.00 0.00 0.00 0.00 0.00 0.00 0.00 0.00 0.00 0.00 0.00 0.00 0.00 0.00 0.00 0.00 0.00 0.00 0.00 0.00
0.00 0.00 0.02 0.02 0.01 0.00 0.01 0.02 0.01 0.00 0.00 0.00 0.00 0.00 0.00 0.00 0.00 0.00 0.00 0.00 0.00 0.00 0.00 0.00 0.00 0.00 0.00 0.00 0.00 0.00 0.00 0.00 0.00 0.00 0.00 0.00 0.00 0.00 0.00 0.00 0.00 0.00 0.00 0.00 0.00 0.00 0.00 0.00 0.00
0.00 0.00 0.01 0.03 0.01 0.00 0.01 0.01 0.01 0.02 0.02 0.02 0.00 0.00 0.00 0.00 0.00 0.00 0.00 0.00 0.00 0.00 0.00 0.00 0.00 0.00 0.00 0.00 0.00 0.00 0.00 0.00 0.00 0.00 0.00 0.00 0.00 0.00 0.00 0.00 0.00 0.00 0.00 0.00 0.00 0.00 0.00 0.00 0.00
0.00 0.00 0.00 0.00 0.00 0.00 0.00 0.00 0.02 0.05 0.09 0.02 0.00 0.00 0.00 0.00 0.00 0.00 0.00 0.00 0.00 0.00 0.00 0.00 0.00 0.00 0.00 0.00 0.00 0.00 0.00 0.00 0.00 0.00 0.00 0.00 0.00 0.00 0.00 0.00 0.00 0.00 0.00 0.00 0.00 0.00 0.00 0.00 0.00
0.00 0.00 0.00 0.00 0.00 0.00 0.00 0.00 0.03 0.08 0.07 0.02 0.00 0.00 0.00 0.00 0.00 0.00 0.00 0.00 0.00 0.00 0.00 0.00 0.00 0.00 0.00 0.00 0.00 0.00 0.00 0.00 0.00 0.00 0.00 0.00 0.00 0.00 0.00 0.00 0.00 0.00 0.00 0.00 0.00 0.00 0.00 0.00 0.00
0.00 0.00 0.00 0.00 0.00 0.00 0.00 0.00 0.01 0.01 0.01 0.06 0.01 0.00 0.00 0.00 0.00 0.00 0.00 0.00 0.00 0.00 0.00 0.00 0.00 0.00 0.00 0.00 0.00 0.00 0.00 0.00 0.00 0.00 0.00 0.00 0.00 0.00 0.00 0.00 0.00 0.00 0.00 0.00 0.00 0.00 0.00 0.00 0.00
0.00 0.00 0.00 0.00 0.00 0.00 0.00 0.00 0.02 0.00 0.00 0.04 0.01 0.00 0.00 0.00 0.00 0.00 0.00 0.00 0.00 0.00 0.00 0.00 0.00 0.00 0.02 0.02 0.00 0.00 0.00 0.00 0.00 0.00 0.00 0.00 0.00 0.00 0.00 0.00 0.00 0.00 0.00 0.00 0.00 0.00 0.00 0.00 0.00
0.00 0.00 0.00 0.00 0.00 0.00 0.00 0.00 0.03 0.02 0.01 0.01 0.00 0.00 0.00 0.00 0.00 0.00 0.00 0.00 0.00 0.00 0.00 0.00 0.01 0.00 0.02 0.03 0.00 0.00 0.00 0.00 0.00 0.00 0.00 0.00 0.00 0.00 0.00 0.00 0.00 0.00 0.00 0.00 0.00 0.00 0.00 0.00 0.00
0.00 0.00 0.00 0.00 0.00 0.00 0.00 0.01 0.02 0.01 0.02 0.00 0.00 0.00 0.02 0.00 0.00 0.00 0.00 0.00 0.00 0.00 0.00 0.00 0.00 0.01 0.02 0.02 0.01 0.00 0.00 0.00 0.00 0.00 0.00 0.00 0.00 0.00 0.00 0.00 0.00 0.00 0.00 0.00 0.00 0.00 0.00 0.00 0.00
0.00 0.00 0.00 0.00 0.00 0.00 0.00 0.00 0.00 0.00 0.01 0.01 0.00 0.01 0.00 0.00 0.00 0.00 0.00 0.00 0.00 0.00 0.00 0.00 0.01 0.01 0.03 0.02 0.00 0.00 0.00 0.00 0.00 0.00 0.00 0.00 0.00 0.00 0.00 0.00 0.00 0.00 0.00 0.00 0.00 0.00 0.00 0.00 0.00
0.00 0.00 0.00 0.00 0.00 0.00 0.00 0.00 0.00 0.00 0.00 0.00 0.00 0.01 0.00 0.00 0.00 0.00 0.00 0.00 0.00 0.00 0.00 0.00 0.00 0.00 0.00 0.00 0.00 0.00 0.00 0.00 0.00 0.00 0.00 0.00 0.00 0.00 0.00 0.00 0.00 0.00 0.00 0.00 0.00 0.00 0.00 0.00 0.00
0.00 0.00 0.00 0.00 0.00 0.00 0.00 0.00 0.00 0.00 0.00 0.00 0.00 0.01 0.00 0.00 0.00 0.00 0.00 0.00 0.00 0.00 0.00 0.00 0.00 0.00 0.00 0.00 0.00 0.00 0.00 0.00 0.00 0.00 0.00 0.00 0.00 0.00 0.00 0.00 0.00 0.00 0.00 0.00 0.00 0.00 0.00 0.00 0.00
0.00 0.00 0.00 0.00 0.00 0.00 0.00 0.00 0.00 0.00 0.00 0.00 0.00 0.00 0.00 0.00 0.00 0.00 0.00 0.00 0.00 0.00 0.00 0.00 0.00 0.00 0.00 0.00 0.00 0.00 0.00 0.00 0.00 0.00 0.00 0.00 0.00 0.00 0.01 0.02 0.01 0.00 0.00 0.00 0.00 0.00 0.00 0.00 0.00
0.00 0.00 0.00 0.00 0.00 0.00 0.00 0.00 0.00 0.00 0.00 0.00 0.00 0.00 0.00 0.00 0.00 0.00 0.00 0.00 0.00 0.00 0.00 0.00 0.00 0.00 0.00 0.00 0.00 0.00 0.00 0.00 0.00 0.00 0.00 0.00 0.01 0.03 0.04 0.06 0.05 0.02 0.00 0.00 0.00 0.00 0.00 0.00 0.00
0.00 0.00 0.00 0.00 0.00 0.00 0.00 0.00 0.00 0.00 0.00 0.00 0.00 0.00 0.00 0.00 0.00 0.00 0.00 0.00 0.00 0.00 0.00 0.00 0.00 0.00 0.00 0.00 0.00 0.00 0.00 0.00 0.00 0.00 0.00 0.00 0.00 0.03 0.08 0.08 0.05 0.03 0.02 0.01 0.00 0.00 0.00 0.00 0.00
0.00 0.00 0.00 0.00 0.00 0.00 0.00 0.00 0.00 0.00 0.00 0.00 0.00 0.00 0.00 0.00 0.00 0.00 0.00 0.00 0.00 0.00 0.00 0.00 0.00 0.00 0.00 0.00 0.00 0.00 0.00 0.00 0.00 0.00 0.00 0.00 0.00 0.00 0.01 0.02 0.02 0.02 0.03 0.03 0.01 0.00 0.00 0.00 0.00
0.00 0.00 0.00 0.00 0.00 0.00 0.00 0.00 0.00 0.00 0.00 0.00 0.00 0.00 0.00 0.00 0.00 0.00 0.00 0.00 0.00 0.00 0.00 0.00 0.00 0.00 0.00 0.00 0.00 0.00 0.00 0.00 0.00 0.00 0.00 0.00 0.00 0.00 0.00 0.02 0.06 0.02 0.01 0.01 0.03 0.02 0.00 0.00 0.00
0.00 0.00 0.00 0.00 0.00 0.00 0.00 0.00 0.00 0.00 0.00 0.00 0.00 0.00 0.00 0.00 0.00 0.00 0.00 0.00 0.00 0.00 0.00 0.00 0.00 0.00 0.00 0.00 0.00 0.00 0.00 0.00 0.00 0.00 0.00 0.00 0.00 0.00 0.00 0.07 0.10 0.08 0.03 0.03 0.03 0.02 0.00 0.00 0.01
MSLP
1011.94 1012.04 1012.22 1012.50 1014.02 1015.15 1015.71 1016.04 1015.41 1014.65 1014.76 1015.03 1015.02 1015.35 1016.35 1017.13 1017.54 1018.83 1018.60 1018.64 1018.65 1018.90 1018.88 1018.98 1019.03 1019.02 1019.19 1019.35 1019.45 1019.47 1019.41 1019.32 1019.26 1019.10 1019.23 1019.14 1019.20 1019.24 1019.24 1019.12 1019.02 1019.07 1018.96 1018.97 1018.96 1018.89 1018.88 1018.78 1018.79
1011.99 1012.07 1012.47 1013.43 1015.21 1016.08 1016.37 1016.17 1015.40 1014.90 1015.36 1015.29 1015.34 1016.01 1016.67 1017.59 1018.01 1018.47 1018.91 1019.07 1019.04 1019.15 1019.18 1019.29 1019.29 1019.33 1019.39 1019.46 1019.61 1019.61 1019.55 1019.61 1019.60 1019.50 1019.43 1019.49 1019.48 1019.56 1019.54 1019.41 1019.38 1019.36 1019.31 1019.19 1019.11 1019.16 1019.19 1019.11 1019.06
1012.01 1012.11 1013.07 1014.39 1015.83 1015.99 1015.91 1015.61 1015.18 1015.12 1015.26 1015.28 1015.96 1016.50 1017.07 1017.99 1018.31 1018.70 1018.82 1018.98 1019.22 1019.36 1019.41 1019.38 1019.41 1019.55 1019.64 1019.69 1019.74 1019.74 1019.80 1019.79 1019.74 1019.63 1019.69 1019.75 1019.69 1019.75 1019.84 1019.79 1019.73 1019.67 1019.56 1019.43 1019.39 1019.34 1019.35 1019.31 1019.18
1012.02 1012.84 1013.98 1014.71 1015.59 1015.30 1014.85 1014.90 1015.03 1015.30 1015.51 1015.85 1016.35 1017.10 1017.61 1017.94 1018.10 1018.47 1018.88 1019.11 1019.38 1019.51 1019.55 1019.47 1019.56 1019.54 1019.68 1019.80 1019.82 1019.84 1019.89 1019.88 1019.79 1019.83 1019.93 1019.94 1020.03 1020.19 1020.07 1019.98 1019.92 1019.88 1019.76 1019.57 1019.50 1019.45 1019.44 1019.42 1019.42
1012.58 1013.75 1015.00 1015.55 1015.49 1014.92 1014.38 1014.34 1014.91 1015.13 1015.59 1016.09 1016.41 1017.55 1018.07 1018.25 1018.25 1018.61 1018.99 1019.05 1019.43 1019.59 1019.62 1019.68 1019.69 1019.73 1019.79 1019.93 1020.02 1020.00 1019.97 1019.98 1019.94 1020.12 1020.19 1020.23 1020.29 1020.34 1020.27 1020.17 1020.04 1019.98 1019.85 1019.73 1019.53 1019.38 1019.32 1019.34 1019.35
1013.35 1014.28 1015.57 1015.89 1015.18 1014.35 1014.15 1014.21 1014.61 1015.27 1015.82 1016.31 1016.83 1017.71 1018.58 1018.58 1018.62 1019.02 1019.22 1019.42 1019.46 1019.69 1019.84 1019.84 1019.75 1019.87 1019.99 1020.11 1020.15 1020.21 1020.27 1020.16 1020.14 1020.37 1020.43 1020.39 1020.44 1020.36 1020.30 1020.24 1020.17 1020.05 1019.82 1019.73 1019.60 1019.37 1019.21 1019.22 1019.13
1013.24 1014.43 1015.51 1015.45 1015.00 1014.24 1014.11 1014.27 1014.59 1015.19 1015.83 1016.22 1016.67 1017.91 1018.77 1018.85 1018.92 1019.13 1019.44 1019.57 1019.70 1019.95 1020.20 1020.25 1020.27 1020.24 1020.28 1020.30 1020.37 1020.36 1020.43 1020.42 1020.35 1020.44 1020.47 1020.49 1020.34 1020.21 1020.22 1020.18 1020.22 1020.02 1019.92 1019.86 1019.69 1019.46 1019.15 1019.10 1019.05
1013.10 1014.45 1015.10 1015.03 1014.58 1014.23 1013.86 1014.12 1014.63 1015.12 1015.83 1016.05 1016.55 1017.53 1018.69 1018.58 1019.01 1019.49 1019.79 1020.04 1020.33 1020.45 1020.46 1020.52 1020.50 1020.60 1020.59 1020.60 1020.42 1020.50 1020.56 1020.57 1020.54 1020.64 1020.64 1020.68 1020.50 1020.26 1020.25 1020.12 1020.08 1019.88 1019.85 1019.67 1019.50 1019.23 1019.02 1018.93 1018.94
1012.63 1014.12 1014.91 1014.48 1014.10 1013.98 1013.93 1014.36 1015.17 1015.44 1015.96 1016.31 1016.47 1016.81 1017.05 1018.03 1019.00 1019.63 1020.15 1020.51 1020.77 1020.83 1020.84 1020.79 1020.67 1020.70 1020.69 1020.73 1020.63 1020.56 1020.53 1020.68 1020.65 1020.76 1020.78 1020.88 1020.86 1020.69 1020.58 1020.40 1020.14 1019.64 1019.78 1019.66 1019.35 1019.28 1019.08 1018.80 1018.98
1012.87 1014.18 1014.41 1013.97 1013.64 1013.58 1013.84 1014.25 1014.96 1015.85 1016.45 1016.93 1017.14 1017.07 1017.27 1018.31 1019.10 1019.69 1020.28 1020.76 1020.96 1021.03 1021.05 1020.91 1020.92 1020.69 1020.63 1020.66 1020.90 1020.82 1020.79 1020.92 1020.87 1020.98 1020.97 1020.88 1020.85 1020.66 1020.58 1020.47 1020.20 1020.20 1019.93 1019.82 1019.61 1019.50 1019.39 1019.33 1019.41
1013.21 1013.67 1014.11 1013.69 1013.21 1013.14 1013.82 1014.55 1014.97 1015.77 1016.49 1016.52 1017.12 1017.57 1018.03 1018.70 1019.34 1019.79 1020.42 1020.66 1020.86 1020.92 1020.92 1021.08 1020.97 1020.76 1020.80 1020.93 1020.90 1020.84 1020.84 1020.87 1020.81 1020.85 1020.97 1020.94 1020.85 1020.81 1020.77 1020.79 1020.73 1020.55 1020.14 1020.09 1019.97 1019.69 1019.64 1019.52 1019.41
1013.11 1013.41 1013.32 1013.12 1012.73 1013.20 1013.85 1014.47 1015.22 1015.76 1015.95 1016.17 1017.36 1017.99 1018.60 1019.31 1019.77 1019.97 1020.20 1020.50 1020.76 1021.01 1021.11 1021.03 1020.74 1020.61 1020.72 1020.89 1020.97 1020.89 1020.82 1020.94 1021.02 1020.97 1020.93 1021.00 1021.04 1020.91 1020.85 1020.91 1020.84 1020.64 1020.44 1020.35 1020.25 1020.09 1019.73 1019.45 1019.25
1013.03 1013.19 1013.07 1013.00 1013.03 1013.30 1013.75 1014.84 1015.59 1016.56 1016.72 1017.13 1018.21 1018.81 1019.34 1019.82 1020.13 1020.27 1020.44 1020.70 1020.80 1020.83 1020.90 1020.66 1020.44 1020.37 1020.55 1020.68 1020.82 1020.86 1020.91 1021.03 1021.06 1020.98 1020.96 1020.92 1020.95 1020.83 1020.70 1020.74 1020.74 1020.53 1020.41 1020.35 1020.30 1020.16 1019.87 1019.60 1019.44
1012.65 1012.95 1013.19 1013.24 1013.52 1013.76 1014.50 1015.67 1015.95 1017.40 1017.44 1017.85 1018.34 1019.15 1019.55 1019.87 1020.10 1020.46 1020.62 1020.78 1020.81 1020.75 1020.63 1020.45 1020.49 1020.50 1020.60 1020.62 1020.72 1020.63 1020.54 1020.48 1020.83 1020.89 1020.73 1020.83 1020.93 1020.92 1020.70 1020.50 1020.52 1020.35 1020.22 1020.25 1020.31 1020.24 1019.98 1019.77 1019.58
1013.11 1013.53 1013.85 1013.70 1013.34 1013.95 1014.59 1015.88 1016.49 1017.25 1017.88 1018.56 1018.85 1019.34 1019.90 1020.08 1020.30 1020.38 1020.35 1020.44 1020.39 1020.35 1020.37 1020.44 1020.40 1020.40 1020.53 1020.67 1020.58 1020.53 1020.47 1020.33 1020.61 1020.73 1020.67 1020.68 1020.68 1020.59 1020.33 1020.43 1020.35 1020.16 1020.10 1020.08 1020.10 1019.93 1019.83 1019.79 1019.55
1014.06 1014.39 1014.40 1013.18 1013.84 1014.06 1014.20 1015.87 1016.99 1017.21 1017.51 1018.00 1018.85 1019.08 1019.58 1020.17 1020.18 1020.26 1020.24 1020.34 1020.44 1020.50 1020.57 1020.45 1020.21 1020.15 1020.44 1020.44 1020.42 1020.41 1020.33 1020.27 1020.25 1020.28 1020.36 1020.30 1020.35 1020.13 1020.12 1020.23 1020.22 1019.88 1019.86 1019.80 1019.90 1019.84 1019.75 1019.63 1019.44
1014.29 1014.35 1013.76 1013.36 1013.37 1013.92 1014.55 1015.98 1016.80 1017.20 1017.25 1017.57 1017.98 1018.67 1019.05 1019.62 1019.75 1019.64 1019.70 1019.78 1020.19 1020.41 1020.44 1020.36 1020.49 1020.47 1020.50 1020.38 1020.29 1020.26 1020.09 1020.09 1019.80 1019.81 1019.92 1019.84 1019.65 1019.81 1020.21 1019.95 1019.80 1019.80 1019.83 1019.73 1019.70 1019.64 1019.72 1019.59 1019.38
1013.46 1013.78 1013.49 1013.22 1013.54 1014.09 1014.74 1015.66 1016.59 1017.31 1017.44 1017.43 1017.70 1018.32 1018.59 1018.77 1018.46 1018.78 1019.20 1019.46 1019.60 1019.94 1020.22 1020.44 1020.37 1020.31 1020.26 1020.14 1020.08 1019.98 1019.97 1019.92 1019.61 1019.57 1019.45 1019.35 1019.27 1019.27 1019.57 1019.67 1019.60 1019.59 1019.75 1019.71 1019.63 1019.60 1019.57 1019.43 1019.30
1011.81 1012.46 1012.85 1012.44 1012.77 1013.54 1014.60 1015.51 1016.06 1016.69 1017.33 1017.54 1017.31 1017.46 1018.01 1018.44 1017.78 1018.20 1018.52 1018.88 1019.00 1019.50 1019.92 1020.14 1020.23 1019.95 1020.21 1020.22 1020.21 1020.11 1020.16 1019.90 1019.68 1019.34 1019.14 1019.09 1018.85 1018.85 1019.12 1019.33 1019.26 1019.36 1019.54 1019.57 1019.63 1019.58 1019.59 1019.50 1019.16
1010.95 1011.74 1011.95 1012.04 1012.42 1013.42 1014.71 1015.68 1016.37 1016.49 1016.42 1016.87 1017.45 1017.70 1017.81 1018.05 1018.02 1018.07 1018.24 1018.67 1018.74 1019.03 1019.49 1019.70 1019.74 1019.94 1019.95 1020.06 1019.99 1019.99 1019.94 1019.73 1019.55 1019.28 1019.04 1018.80 1018.69 1018.71 1018.78 1018.92 1018.98 1018.82 1019.08 1019.20 1019.40 1019.52 1019.75 1019.55 1019.20
1009.99 1010.72 1011.16 1011.80 1012.79 1013.90 1014.90 1016.20 1016.52 1016.76 1016.85 1016.73 1016.93 1016.77 1017.17 1017.56 1017.59 1017.68 1017.96 1018.20 1018.45 1018.76 1019.01 1019.32 1019.21 1019.43 1019.46 1019.73 1019.87 1019.91 1019.88 1019.67 1019.52 1019.25 1019.04 1018.59 1018.39 1018.35 1018.39 1018.40 1018.45 1018.48 1018.84 1018.89 1018.86 1019.07 1019.28 1019.48 1019.14
1009.63 1009.71 1010.31 1011.44 1013.08 1014.19 1014.63 1016.33 1016.53 1016.48 1016.74 1016.61 1016.52 1016.35 1016.62 1016.88 1016.98 1017.18 1017.51 1017.88 1018.22 1018.30 1018.63 1018.70 1018.93 1019.18 1019.37 1019.67 1019.79 1019.91 1020.00 1019.96 1019.53 1019.27 1018.89 1018.56 1018.03 1017.75 1017.76 1017.88 1017.92 1018.04 1018.23 1018.46 1018.40 1018.52 1018.64 1019.02 1019.07
1008.78 1009.20 1010.32 1011.07 1012.56 1013.93 1015.37 1016.46 1016.15 1016.45 1016.64 1016.45 1016.20 1015.91 1016.18 1016.35 1016.63 1016.90 1017.24 1017.52 1017.78 1017.90 1018.14 1018.41 1018.75 1019.03 1019.19 1019.26 1019.34 1019.59 1019.75 1019.58 1019.10 1018.86 1018.56 1018.23 1017.86 1017.62 1017.33 1017.30 1017.45 1017.65 1017.87 1017.82 1017.90 1018.07 1018.30 1018.33 1018.54
1008.53 1009.45 1010.58 1011.86 1012.91 1014.49 1015.35 1016.21 1016.04 1016.49 1016.09 1016.17 1015.98 1016.37 1016.24 1016.49 1016.97 1017.05 1017.26 1017.55 1017.74 1018.01 1018.30 1018.51 1018.66 1018.72 1018.78 1018.96 1019.04 1019.24 1019.49 1019.27 1019.09 1018.56 1018.41 1017.97 1017.63 1017.27 1017.09 1016.77 1016.63 1016.83 1017.21 1017.20 1017.40 1017.48 1017.68 1017.76 1017.86
1009.09 1010.13 1011.51 1012.76 1014.09 1015.17 1015.47 1015.95 1015.54 1015.60 1015.41 1015.36 1015.89 1016.41 1016.46 1016.68 1017.04 1017.23 1017.51 1017.73 1017.94 1018.17 1018.34 1018.55 1018.80 1018.82 1018.60 1018.69 1018.76 1018.83 1018.95 1018.97 1018.98 1018.57 1018.25 1017.82 1017.36 1016.90 1016.45 1016.51 1016.47 1016.24 1016.50 1016.55 1016.76 1016.98 1017.03 1017.13 1017.39
1008.93 1010.17 1011.92 1013.21 1014.81 1015.28 1015.61 1015.88 1015.37 1015.25 1015.13 1015.29 1015.72 1016.19 1016.73 1017.01 1016.99 1017.19 1017.36 1017.63 1017.97 1018.14 1018.25 1018.53 1018.63 1018.59 1018.38 1018.46 1018.40 1018.33 1018.34 1018.44 1018.26 1018.06 1017.87 1017.59 1017.24 1016.66 1016.23 1016.10 1015.99 1015.87 1015.84 1016.00 1016.15 1016.47 1016.57 1016.70 1016.76
1009.16 1010.47 1011.18 1012.74 1014.63 1015.54 1016.09 1016.12 1015.35 1015.37 1015.52 1015.69 1016.07 1016.54 1016.92 1016.99 1017.25 1017.40 1017.42 1017.83 1018.20 1018.40 1018.19 1018.28 1018.36 1018.42 1018.47 1018.25 1018.07 1018.08 1018.02 1018.14 1018.02 1017.62 1017.36 1017.05 1016.66 1016.31 1015.82 1015.63 1015.47 1015.59 1015.66 1015.66 1015.74 1015.92 1015.95 1016.22 1016.17
1008.93 1010.20 1011.50 1013.04 1014.77 1015.78 1016.38 1016.48 1015.80 1015.63 1015.66 1015.88 1016.37 1016.67 1016.73 1016.94 1017.18 1017.13 1017.65 1017.84 1018.08 1018.09 1017.83 1018.02 1018.40 1018.47 1018.26 1018.13 1018.04 1017.99 1017.85 1017.55 1017.59 1017.49 1017.15 1016.76 1016.16 1015.80 1015.48 1015.23 1015.07 1015.10 1015.12 1015.23 1015.40 1015.37 1015.42 1015.70 1015.54
1009.52 1010.50 1011.99 1013.31 1014.69 1015.78 1016.51 1016.19 1014.80 1014.94 1015.19 1015.47 1016.11 1016.47 1016.54 1016.78 1016.87 1017.13 1017.33 1017.57 1017.59 1017.81 1018.07 1018.20 1018.37 1018.37 1018.36 1018.30 1018.22 1018.17 1017.96 1017.58 1017.34 1017.14 1016.71 1016.29 1015.81 1015.32 1014.93 1014.62 1014.47 1014.48 1014.60 1014.77 1014.90 1014.87 1014.86 1015.15 1014.98
1009.86 1010.69 1011.96 1013.67 1014.95 1015.82 1016.09 1015.17 1014.46 1014.46 1014.62 1015.15 1015.79 1015.99 1016.27 1016.54 1016.89 1017.32 1017.52 1017.84 1018.17 1018.36 1018.50 1018.57 1018.70 1018.72 1018.67 1018.58 1018.52 1018.20 1017.76 1017.49 1017.37 1016.87 1016.33 1015.82 1015.30 1014.72 1014.29 1013.95 1013.83 1014.11 1014.19 1014.35 1014.56 1014.42 1014.34 1014.57 1014.55
Thickness
5782 5781 5781 5768 5728 5719 5707 5719 5737 5741 5737 5744 5750 5746 5733 5730 5729 5712 5732 5733 5732 5731 5729 5728 5726 5725 5723 5721 5719 5719 5719 5719 5721 5722 5721 5721 5721 5720 5719 5719 5719 5717 5717 5716 5717 5718 5718 5718 5718
5782 5782 5774 5751 5712 5701 5703 5722 5726 5740 5738 5746 5747 5742 5732 5721 5730 5727 5726 5729 5728 5727 5725 5723 5721 5720 5719 5718 5716 5716 5716 5716 5714 5715 5717 5716 5716 5714 5714 5713 5713 5712 5712 5711 5711 5711 5709 5710 5711
5781 5780 5757 5731 5715 5703 5708 5726 5734 5740 5744 5746 5736 5739 5733 5720 5727 5726 5729 5727 5725 5723 5721 5720 5718 5716 5715 5714 5713 5712 5711 5710 5710 5709 5710 5709 5710 5708 5707 5707 5706 5705 5706 5706 5705 5705 5704 5703 5704
5774 5763 5752 5729 5721 5732 5736 5737 5740 5736 5742 5744 5738 5725 5732 5734 5731 5731 5728 5724 5721 5719 5717 5716 5714 5714 5712 5710 5710 5709 5708 5707 5707 5706 5704 5704 5702 5700 5700 5701 5699 5698 5699 5700 5700 5699 5699 5698 5697
5773 5752 5720 5717 5720 5736 5748 5750 5745 5741 5740 5738 5741 5722 5722 5729 5733 5730 5726 5723 5720 5716 5714 5712 5710 5710 5708 5705 5703 5703 5702 5702 5701 5698 5697 5696 5693 5691 5691 5691 5692 5691 5692 5692 5694 5695 5695 5693 5692
5752 5744 5712 5708 5724 5744 5749 5752 5747 5739 5738 5735 5730 5723 5718 5728 5728 5725 5723 5718 5715 5712 5709 5708 5707 5704 5701 5699 5697 5695 5694 5695 5694 5691 5689 5688 5686 5685 5684 5683 5683 5684 5685 5684 5685 5687 5689 5687 5688
5751 5737 5719 5727 5726 5738 5741 5751 5741 5737 5732 5733 5737 5716 5717 5721 5724 5722 5718 5714 5710 5706 5703 5701 5699 5697 5694 5693 5691 5689 5687 5687 5687 5685 5682 5680 5681 5681 5678 5677 5675 5677 5676 5676 5677 5678 5681 5681 5680
5760 5738 5732 5732 5729 5730 5748 5752 5750 5744 5734 5745 5740 5715 5710 5721 5721 5716 5711 5706 5701 5698 5696 5695 5693 5691 5689 5686 5685 5681 5680 5680 5679 5676 5674 5673 5673 5672 5672 5671 5670 5670 5670 5670 5670 5672 5673 5673 5673
5774 5735 5717 5734 5735 5738 5749 5742 5745 5747 5736 5736 5739 5734 5734 5727 5718 5709 5702 5698 5694 5693 5691 5690 5688 5686 5684 5681 5679 5676 5675 5671 5671 5669 5667 5666 5664 5664 5664 5663 5662 5666 5664 5664 5665 5664 5665 5667 5665
5756 5725 5733 5747 5750 5743 5749 5748 5742 5731 5727 5723 5724 5733 5733 5723 5713 5705 5697 5691 5690 5688 5688 5687 5683 5684 5682 5678 5675 5674 5671 5667 5664 5661 5661 5660 5658 5657 5656 5656 5656 5655 5656 5656 5656 5656 5656 5657 5656
5750 5736 5743 5752 5758 5759 5747 5744 5747 5731 5722 5727 5721 5720 5722 5715 5709 5702 5696 5692 5688 5687 5686 5684 5682 5681 5678 5675 5673 5671 5667 5664 5661 5657 5653 5652 5651 5649 5648 5647 5647 5647 5647 5647 5647 5649 5649 5651 5651
5752 5755 5753 5758 5763 5758 5747 5748 5737 5738 5736 5738 5725 5720 5714 5706 5701 5699 5697 5692 5688 5684 5680 5678 5677 5675 5673 5670 5668 5666 5663 5658 5654 5650 5647 5644 5643 5642 5640 5637 5636 5636 5638 5637 5638 5639 5640 5641 5642
5752 5755 5759 5762 5760 5757 5757 5740 5733 5726 5729 5727 5717 5710 5704 5699 5694 5695 5693 5689 5686 5681 5675 5673 5672 5670 5666 5663 5660 5658 5655 5650 5645 5643 5640 5638 5636 5634 5632 5630 5627 5627 5627 5627 5627 5627 5628 5630 5630
5764 5762 5758 5757 5753 5751 5738 5730 5733 5720 5723 5718 5713 5702 5697 5693 5691 5686 5684 5682 5679 5677 5674 5672 5667 5663 5659 5657 5653 5650 5647 5644 5639 5634 5633 5628 5624 5621 5620 5621 5619 5618 5618 5617 5616 5616 5617 5617 5618
5759 5747 5742 5745 5753 5745 5747 5727 5720 5723 5717 5706 5702 5695 5688 5686 5683 5680 5679 5678 5679 5676 5672 5666 5663 5659 5655 5651 5647 5643 5638 5636 5632 5627 5623 5619 5615 5612 5611 5608 5608 5609 5608 5608 5607 5607 5607 5607 5608
5740 5734 5719 5746 5746 5748 5750 5715 5716 5721 5716 5708 5701 5696 5688 5681 5680 5679 5677 5674 5670 5667 5664 5660 5658 5655 5649 5646 5643 5638 5632 5629 5627 5623 5618 5613 5608 5606 5604 5600 5598 5599 5599 5598 5596 5597 5596 5596 5597
5731 5718 5729 5737 5752 5744 5739 5713 5718 5718 5717 5710 5706 5699 5694 5683 5682 5683 5680 5676 5670 5663 5659 5657 5652 5648 5643 5638 5636 5632 5629 5625 5622 5617 5612 5607 5604 5598 5593 5594 5592 5590 5588 5587 5587 5587 5584 5584 5586
5722 5719 5723 5728 5739 5738 5727 5717 5717 5714 5711 5708 5706 5696 5691 5688 5690 5687 5680 5674 5670 5663 5656 5650 5647 5644 5639 5633 5627 5624 5620 5615 5613 5609 5606 5602 5599 5596 5593 5590 5588 5584 5580 5579 5578 5576 5573 5574 5574
5750 5736 5729 5742 5747 5735 5721 5714 5716 5715 5706 5700 5701 5697 5690 5683 5691 5686 5681 5674 5671 5663 5654 5647 5642 5639 5631 5625 5618 5614 5610 5607 5606 5604 5601 5597 5596 5592 5588 5583 5581 5577 5572 5568 5566 5564 5562 5561 5564
5752 5740 5733 5743 5747 5737 5719 5709 5710 5709 5707 5702 5696 5692 5689 5684 5683 5682 5678 5672 5667 5661 5651 5645 5639 5631 5624 5616 5611 5608 5604 5601 5599 5596 5593 5591 5588 5584 5580 5577 5573 5571 5567 5562 5558 5555 5551 5550 5553
5751 5736 5738 5735 5732 5724 5711 5697 5699 5701 5699 5701 5699 5699 5691 5683 5681 5679 5672 5669 5663 5655 5649 5641 5635 5624 5618 5611 5605 5601 5597 5595 5591 5588 5585 5584 5581 5577 5572 5569 5566 5562 5559 5557 5554 5550 5547 5542 5544
5734 5758 5756 5737 5714 5691 5712 5672 5691 5694 5689 5692 5694 5694 5688 5683 5682 5678 5672 5664 5658 5652 5644 5636 5627 5618 5611 5605 5600 5595 5589 5585 5583 5579 5577 5575 5574 5572 5568 5563 5560 5557 5554 5551 5549 5547 5542 5537 5537
5750 5764 5754 5753 5727 5704 5693 5674 5685 5686 5679 5684 5689 5693 5687 5683 5678 5672 5667 5661 5654 5648 5640 5630 5621 5612 5604 5600 5596 5589 5583 5578 5577 5572 5570 5567 5564 5560 5558 5555 5552 5550 5547 5546 5544 5540 5536 5535 5533
5770 5756 5742 5724 5710 5686 5692 5679 5681 5671 5681 5685 5690 5682 5681 5675 5668 5664 5660 5653 5646 5638 5629 5618 5611 5605 5600 5594 5589 5583 5576 5572 5567 5566 5561 5559 5555 5553 5549 5549 5548 5545 5542 5541 5538 5535 5532 5531 5530
5751 5727 5692 5690 5683 5671 5689 5679 5681 5686 5690 5689 5680 5673 5672 5666 5660 5656 5650 5642 5636 5627 5618 5611 5602 5595 5593 5589 5584 5579 5572 5566 5560 5555 5552 5549 5546 5544 5543 5538 5536 5537 5534 5533 5531 5529 5528 5528 5527
5747 5729 5684 5669 5663 5677 5684 5672 5679 5690 5691 5688 5680 5671 5662 5657 5656 5651 5644 5635 5627 5618 5612 5604 5597 5591 5589 5583 5579 5574 5568 5560 5555 5549 5543 5538 5533 5532 5531 5529 5528 5528 5527 5526 5525 5524 5523 5524 5524
5737 5716 5725 5693 5678 5661 5659 5668 5683 5684 5680 5677 5668 5659 5654 5651 5645 5639 5634 5623 5615 5608 5605 5597 5590 5584 5579 5577 5573 5566 5560 5553 5546 5541 5535 5530 5526 5523 5524 5523 5523 5521 5520 5521 5522 5521 5521 5520 5522
5744 5734 5703 5683 5669 5653 5647 5650 5655 5667 5667 5665 5655 5651 5649 5645 5638 5633 5622 5615 5606 5601 5599 5590 5580 5575 5572 5569 5563 5558 5553 5549 5539 5533 5526 5521 5520 5518 5517 5517 5517 5516 5516 5516 5517 5518 5519 5518 5520
5723 5709 5693 5685 5670 5651 5634 5641 5673 5672 5669 5661 5653 5648 5645 5640 5634 5627 5618 5609 5604 5598 5589 5581 5573 5568 5564 5558 5553 5547 5542 5538 5531 5525 5521 5517 5515 5513 5514 5514 5513 5512 5512 5513 5514 5517 5519 5518 5520
5731 5716 5695 5671 5668 5650 5642 5646 5679 5671 5668 5661 5651 5648 5643 5636 5627 5618 5609 5600 5593 5586 5578 5570 5563 5557 5552 5547 5541 5537 5533 5527 5521 5518 5515 5514 5512 5512 5512 5511 5509 5507 5509 5510 5511 5516 5520 5518 5521